Regional Weather Roundup
Issued by NWS

Home | Current Version | Previous Version | Text Only | Print | Product List | Glossary Off
Versions: 1 2 3 4 5 6 7 8 9 10 11 12 13 14 15 16 17 18 19 20 21 22 23 24 25 26 27 28 29 30 31 32 33 34 35 36 37 38 39 40 41 42 43 44 45 46 47 48 49 50

000
ASUS43 KFSD 291802
RWRSD

WEATHER ROUNDUP FOR SOUTH DAKOTA
NATIONAL WEATHER SERVICE SIOUX FALLS SD
100 PM CDT FRI MAY 29 2015

NOTE: "FAIR" INDICATES FEW OR NO CLOUDS BELOW 12,000 FEET WITH NO
SIGNIFICANT WEATHER AND/OR OBSTRUCTIONS TO VISIBILITY.


SDZ001>005-009-010-012>017-291900-
NORTHWEST AND NORTH CENTRAL SOUTH DAKOTA

CITY           SKY/WX    TMP DP  RH WIND       PRES   REMARKS
BUFFALO          N/A     51  36  56 N15       30.21S
FAITH            N/A     48  41  76 N16G25    30.24R
MOBRIDGE       CLOUDY    52  44  74 N18G28    30.17S
$$

SDZ012>016-024>037-041>051-057-063-072>074-291900-
SOUTHWEST AND SOUTH CENTRAL SOUTH DAKOTA

CITY           SKY/WX    TMP DP  RH WIND       PRES   REMARKS
RAPID CTY ARPT LGT RAIN  47  45  93 N21G30    30.24R FOG
PIERRE         CLOUDY    51  47  86 N24       30.14R
CUSTER         CLOUDY    52  42  69 N12       30.22S
PHILIP         LGT RAIN  50  47  89 N16       30.22R
PINE RIDGE     LGT RAIN  48  44  86 N16G25    30.21R
WINNER         LGT RAIN  55  51  86 N20       30.10R FOG
$$

SDZ004>011-016>023-039-040-291900-
NORTHEAST SOUTH DAKOTA

CITY           SKY/WX    TMP DP  RH WIND       PRES   REMARKS
ABERDEEN       CLOUDY    52  45  77 N25G33    30.13S
WATERTOWN      LGT RAIN  48  46  93 N21       30.04R FOG
BROOKINGS      CLOUDY    52  48  87 N17G24    30.01R
SISSETON         N/A     48  45  89 N28G36    30.08R
$$

SDZ017-020-022-023-036>040-048>070-291900-
SOUTHEAST SOUTH DAKOTA

CITY           SKY/WX    TMP DP  RH WIND       PRES   REMARKS
SIOUX FALLS    LGT RAIN  60  57  89 N16G29    29.93R
HURON            N/A    N/A N/A N/A MISG      30.06R
CHAMBERLAIN    LGT RAIN  51  50  95 N21G29    30.08R
MITCHELL       RAIN      55  54  96 N22G28    30.02R FOG
YANKTON        PTSUNNY   70  61  73 NW9       29.90R
$$

ABBREVIATIONS USED IN REMARKS
   TC - TEMPERATURE IN CELSIUS
  WCI - WIND CHILL INDEX
   HX - HEAT INDEX
  VSB - VISIBILITY



USA.gov is the U.S. government's official web portal to all federal, state and local government web resources and services.